Location: Borotín
(49.5055°N, 14.6142°E)
Time: 06:19:57
(UTC+00:00)

SL-24 DEB - Pass Details

Date: 27 May 2022
Orbit: 662 x 698 km, 92.0° (Epoch: 28 June)

Event Time Altitude Azimuth Distance (km) Brightness Sun altitude
Rises 02:18:51 0° 176° (S) 3,061 7.2 -6.5°
Reaches altitude 10° 02:21:07 10° 177° (S) 2,145 6.4 -6.2°
Maximum altitude 02:25:51 81° 266° (W) 704 4.3 -5.6°
Drops below altitude 10° 02:30:35 10° 353° (N) 2,141 7.4 -5.1°
Sets 02:32:51 0° 355° (N) 3,055 8.2 -4.8°
